RH
4972 4938 4852 4702 4557 4418 4309 4239 4159 4070 3968 3840 3728 3571 3418 3239 3118 3025 2956 2873 2879 2882 2891 2915 2971 3080 3209 3384 3523 3640 3722 3771 3790 3801 3790 3790 3712 3624 3517 3418 3288 3180 3092 2995 2865 2749 2678 2612 2563 2551 2596 2712 2829 2917 3018 3237 3557 3883 4195 4505 4630 4677 4716 4855 4951 5116 5467 6098 6325
5146 5063 4904 4703 4514 4376 4245 4136 3997 3852 3696 3542 3421 3284 3135 2984 2896 2802 2777 2734 2762 2782 2822 2862 2960 3111 3261 3425 3520 3594 3621 3621 3648 3659 3634 3590 3485 3391 3295 3168 3011 2882 2766 2650 2526 2452 2432 2422 2404 2461 2599 2851 3117 3257 3307 3320 3441 3674 4027 4509 4731 4748 4704 4767 5044 5205 5357 5595 5854
5154 4970 4755 4540 4338 4178 4024 3849 3687 3510 3340 3182 3055 2929 2818 2720 2651 2626 2624 2642 2679 2730 2798 2863 3005 3140 3268 3382 3467 3510 3538 3529 3562 3568 3535 3457 3352 3262 3151 3011 2852 2709 2575 2480 2424 2413 2465 2554 2648 2820 3114 3583 4037 4220 4162 3934 3786 3935 4327 4890 5101 5135 5118 5108 5390 5551 5660 5763 5890
4891 4674 4446 4224 4045 3852 3662 3468 3283 3104 2966 2811 2712 2629 2544 2484 2463 2495 2529 2585 2653 2757 2835 2931 3030 3150 3254 3358 3415 3481 3497 3524 3519 3477 3428 3345 3243 3128 2991 2846 2729 2649 2617 2630 2720 2830 2930 3070 3221 3490 3884 4429 4774 4885 4830 4749 4513 4541 4823 5200 5346 5447 5492 5532 5634 5735 5831 5918 6158
4476 4274 4069 3873 3676 3457 3258 3075 2890 2754 2627 2545 2460 2391 2374 2353 2376 2427 2501 2585 2699 2806 2910 2965 3036 3110 3176 3247 3279 3323 3373 3386 3374 3302 3228 3140 3040 2965 2916 2846 2837 2912 3065 3260 3440 3608 3745 3919 4062 4270 4520 4788 4884 4931 4948 4985 4966 5075 5216 5374 5445 5448 5453 5448 5426 5438 5466 5462 5754
4084 3888 3685 3489 3267 3070 2895 2732 2613 2502 2412 2361 2298 2272 2290 2320 2382 2447 2548 2630 2740 2808 2868 2923 2917 2930 2941 2941 2957 2990 3023 3052 3027 2977 2923 2875 2916 3009 3116 3209 3377 3645 3913 4179 4335 4460 4569 4689 4720 4755 4790 4861 4862 4899 4932 4936 4996 5126 5226 5301 5270 5170 5075 5079 5098 4989 4835 4787 4958
3706 3518 3307 3118 2916 2746 2616 2489 2413 2350 2304 2267 2252 2281 2310 2376 2427 2471 2539 2610 2648 2692 2705 2722 2683 2672 2644 2646 2679 2718 2734 2752 2732 2686 2720 2837 3116 3446 3798 4059 4282 4543 4791 4956 4996 5028 5043 5042 4930 4844 4796 4752 4651 4579 4530 4521 4579 4658 4725 4747 4717 4687 4723 4918 5173 5105 4862 4550 4624
3366 3170 2973 2826 2673 2541 2441 2362 2316 2299 2295 2274 2320 2349 2373 2421 2451 2453 2491 2507 2512 2523 2526 2537 2526 2520 2541 2577 2604 2653 2691 2688 2645 2649 2797 3107 3656 4206 4625 4870 5029 5171 5263 5307 5245 5120 4927 4718 4509 4357 4255 4173 4112 4087 4095 4105 4109 4128 4181 4270 4379 4491 4638 4880 5338 5540 5470 5056 4845
3069 2900 2762 2643 2532 2464 2379 2350 2340 2327 2351 2363 2398 2416 2457 2459 2446 2454 2448 2456 2484 2483 2494 2516 2505 2538 2568 2639 2710 2760 2776 2760 2709 2745 2946 3372 4087 4680 5090 5265 5338 5348 5276 5089 4799 4497 4209 3947 3759 3675 3660 3665 3647 3648 3694 3804 3849 3941 4059 4276 4552 4755 4935 5155 5469 5693 5803 5696 5487
2866 2748 2657 2569 2506 2438 2420 2396 2380 2406 2413 2422 2435 2448 2457 2454 2473 2472 2474 2507 2518 2529 2540 2573 2557 2584 2650 2754 2798 2842 2837 2812 2809 2876 3077 3464 4042 4538 4910 5095 5062 4920 4607 4222 3835 3531 3277 3096 3095 3146 3251 3337 3366 3419 3597 3966 4112 4463 4818 4969 5168 5307 5433 5559 5738 5824 5847 5856 5955
2775 2690 2621 2556 2510 2472 2462 2440 2433 2432 2421 2426 2419 2437 2450 2469 2502 2518 2534 2545 2556 2562 2556 2590 2612 2666 2738 2851 2878 2889 2884 2866 2890 2956 3096 3304 3569 3770 3955 4074 4004 3799 3495 3180 2913 2730 2648 2641 2796 3009 3228 3408 3518 3615 3837 4249 4443 4937 5382 5476 5576 5629 5670 5691 5746 5752 5735 5751 6070
2762 2693 2636 2576 2535 2510 2498 2446 2441 2429 2403 2393 2429 2452 2485 2496 2512 2529 2557 2573 2590 2590 2628 2686 2785 2827 2876 2948 2984 2985 2972 2959 2980 3020 3066 3129 3143 3143 3110 3047 2911 2762 2612 2473 2417 2428 2523 2668 2895 3157 3398 3560 3613 3719 3862 4090 4174 4293 4609 5246 5647 5931 6061 6030 5951 5874 5818 5792 5993
2748 2707 2641 2601 2562 2527 2486 2465 2437 2397 2404 2406 2447 2480 2502 2502 2524 2551 2568 2595 2637 2703 2766 2866 2968 3013 3049 3091 3128 3148 3141 3137 3147 3146 3147 3137 3042 2914 2736 2598 2505 2462 2462 2443 2549 2697 2847 3014 3250 3485 3678 3785 3774 3879 4004 4091 4102 4103 4120 4178 4666 5207 5722 6091 6122 6063 5974 5860 5921
2779 2713 2666 2622 2573 2529 2478 2452 2427 2396 2412 2420 2469 2485 2507 2496 2524 2554 2615 2679 2789 2875 2961 3025 3105 3189 3234 3277 3292 3316 3334 3320 3308 3304 3284 3223 3088 2935 2805 2704 2691 2747 2819 2968 3129 3277 3424 3560 3765 3924 4099 4230 4234 4304 4416 4427 4442 4433 4410 4368 4271 4246 4443 5013 5300 5515 5660 5774 5735
2795 2734 2676 2627 2581 2527 2474 2449 2432 2417 2428 2447 2480 2474 2494 2505 2558 2613 2694 2782 2923 3026 3107 3149 3232 3341 3437 3510 3496 3476 3461 3441 3433 3391 3361 3253 3121 3034 2997 2995 3073 3198 3385 3576 3745 3875 3989 4095 4180 4286 4365 4438 4552 4671 4748 4771 4741 4659 4565 4454 4359 4202 4037 3873 4015 4179 4409 4684 4940
2795 2728 2657 2602 2557 2507 2471 2448 2429 2450 2450 2466 2477 2500 2514 2556 2629 2704 2801 2898 3011 3130 3259 3351 3418 3519 3615 3702 3688 3630 3563 3508 3472 3409 3356 3259 3194 3173 3210 3286 3441 3618 3814 4013 4187 4301 4395 4447 4449 4479 4529 4629 4755 4898 4981 5023 4940 4779 4549 4290 4095 3926 3819 3720 3597 3534 3551 3611 3696
2738 2684 2613 2557 2518 2471 2443 2451 2473 2484 2495 2514 2531 2551 2582 2624 2661 2764 2883 3002 3111 3222 3383 3584 3690 3741 3787 3817 3801 3743 3668 3546 3499 3422 3380 3305 3291 3330 3434 3564 3745 3921 4100 4260 4418 4545 4633 4679 4628 4601 4585 4630 4780 4926 5022 5011 4878 4648 4333 3957 3658 3453 3330 3276 3279 3286 3304 3321 3402
2645 2575 2524 2474 2446 2449 2454 2476 2498 2542 2567 2607 2632 2650 2679 2677 2727 2791 2961 3116 3258 3386 3530 3709 3848 3920 3927 3913 3877 3808 3723 3609 3540 3504 3482 3470 3488 3567 3694 3840 4023 4139 4268 4384 4566 4724 4820 4873 4765 4640 4520 4475 4590 4687 4749 4712 4543 4282 3954 3580 3245 3029 2906 2857 2863 2899 2932 2991 3117
2506 2467 2430 2402 2427 2449 2487 2526 2578 2634 2696 2716 2737 2746 2739 2749 2772 2859 3000 3199 3405 3555 3661 3756 3874 3959 3988 3941 3884 3806 3759 3695 3656 3639 3664 3688 3736 3853 4001 4173 4275 4352 4432 4559 4744 4912 4995 4981 4835 4662 4483 4312 4281 4287 4281 4207 4041 3816 3588 3313 3062 2878 2757 2702 2685 2688 2674 2698 2748
2382 2376 2370 2402 2443 2498 2551 2645 2720 2787 2824 2840 2824 2818 2822 2790 2839 2923 3059 3252 3482 3627 3727 3784 3849 3878 3902 3866 3808 3788 3758 3738 3734 3786 3858 3929 4070 4204 4341 4473 4543 4615 4720 4869 5030 5138 5144 5054 4862 4632 4399 4162 4020 3930 3851 3771 3652 3547 3431 3321 3209 3087 2982 2911 2860 2820 2778 2713 2669
2304 2343 2375 2430 2518 2606 2709 2800 2909 2943 2942 2949 2926 2905 2905 2868 2895 2962 3114 3291 3477 3616 3702 3734 3776 3774 3757 3726 3678 3641 3652 3643 3660 3757 3884 4069 4285 4451 4598 4697 4845 4949 5098 5251 5349 5338 5229 5080 4794 4516 4249 3985 3838 3730 3666 3627 3592 3574 3581 3572 3549 3491 3441 3381 3340 3286 3221 3137 3019
2299 2359 2430 2507 2623 2752 2872 2989 3046 3072 3068 3040 3030 3005 2977 2901 2917 2979 3104 3300 3444 3552 3613 3649 3649 3595 3565 3503 3463 3418 3383 3335 3352 3448 3644 3879 4183 4445 4673 4884 5098 5282 5441 5578 5576 5484 5283 5001 4605 4259 3972 3775 3701 3679 3668 3692 3747 3807 3868 3899 3927 3905 3877 3845 3848 3838 3825 3762 3647
2348 2441 2534 2623 2786 2935 3072 3178 3202 3209 3198 3183 3163 3099 3010 2929 2895 2932 3060 3257 3395 3484 3499 3498 3448 3379 3296 3247 3187 3126 3066 2994 3005 3108 3301 3583 3912 4283 4657 5027 5319 5524 5686 5750 5671 5452 5137 4712 4243 3890 3663 3547 3592 3643 3729 3817 3909 4004 4090 4127 4163 4174 4163 4163 4170 4195 4238 4274 4234
2446 2556 2655 2786 2952 3132 3269 3340 3352 3327 3335 3298 3243 3162 3043 2915 2848 2883 3000 3200 3335 3376 3349 3305 3223 3114 3028 2942 2944 2896 2854 2850 2874 2956 3109 3321 3652 4009 4432 4885 5272 5532 5647 5581 5360 5020 4632 4204 3821 3563 3427 3415 3526 3646 3773 3899 3988 4047 4112 4137 4163 4207 4235 4273 4306 4348 4423 4479 4550
2573 2705 2830 2974 3196 3363 3485 3526 3517 3484 3455 3400 3323 3207 3076 2943 2865 2867 2946 3102 3201 3202 3158 3066 2968 2863 2754 2677 2748 2759 2791 2814 2882 2952 3079 3199 3431 3707 4015 4389 4726 4918 4982 4868 4626 4328 4000 3718 3549 3451 3418 3477 3609 3738 3871 3983 4020 4046 4038 4020 4021 4051 4123 4194 4265 4331 4398 4465 4524
2722 2863 3046 3245 3479 3615 3697 3693 3651 3593 3529 3444 3375 3267 3129 2998 2926 2901 2919 2981 3037 3023 2955 2809 2705 2607 2529 2507 2568 2627 2705 2779 2877 2965 3056 3173 3309 3474 3671 3891 4044 4150 4168 4085 3935 3791 3663 3571 3537 3552 3610 3698 3815 3927 4016 4053 4048 4024 3990 3935 3901 3926 3987 4107 4159 4191 4240 4268 4327
2890 3101 3327 3555 3758 3865 3900 3844 3747 3662 3571 3488 3419 3322 3239 3130 3042 2967 2920 2896 2901 2857 2772 2613 2488 2375 2338 2354 2416 2516 2632 2759 2877 2952 3027 3091 3199 3346 3460 3573 3670 3736 3777 3793 3744 3723 3695 3697 3721 3751 3800 3901 4007 4073 4093 4091 4063 4031 3985 3906 3833 3839 3900 4015 4059 4071 4079 4078 4090
3161 3404 3665 3901 4063 4109 4067 3951 3815 3686 3576 3496 3438 3407 3349 3285 3163 3028 2920 2871 2829 2767 2662 2523 2379 2299 2278 2294 2409 2524 2682 2815 2929 2985 3028 3087 3184 3330 3490 3610 3715 3789 3851 3896 3868 3834 3831 3862 3885 3909 3952 4009 4076 4130 4139 4123 4110 4044 3990 3911 3832 3820 3886 4007 4061 4091 4057 4042 4023
3456 3730 4013 4238 4312 4268 4157 3977 3815 3675 3568 3518 3499 3479 3442 3376 3232 3083 2960 2884 2849 2773 2670 2544 2409 2344 2317 2359 2505 2652 2810 2949 3034 3096 3166 3245 3352 3499 3664 3799 3866 3955 3987 3996 3943 3902 3860 3862 3902 3934 3988 4017 4035 4052 4081 4115 4107 4079 4020 3940 3870 3884 3959 4058 4152 4174 4157 4137 4106
3793 4075 4316 4482 4446 4327 4143 3958 3807 3670 3585 3546 3543 3545 3495 3397 3237 3087 3003 2953 2931 2877 2779 2628 2493 2395 2405 2505 2652 2813 2970 3098 3171 3252 3344 3433 3560 3682 3785 3893 3947 3993 3997 3988 3929 3865 3815 3796 3814 3865 3913 3945 3959 3991 4022 4033 4049 4060 4022 3973 3954 3987 4051 4143 4201 4224 4232 4244 4227
4118 4346 4505 4588 4464 4307 4112 3916 3785 3687 3627 3613 3613 3595 3522 3391 3208 3085 3031 3009 3034 2993 2889 2734 2555 2483 2499 2608 2802 2964 3131 3246 3354 3435 3549 3640 3737 3824 3894 3973 4013 4032 4017 3988 3930 3849 3799 3768 3789 3818 3854 3891 3925 3945 3973 3961 3977 3996 3985 3968 3985 4013 4077 4133 4198 4240 4260 4280 4287
4342 4512 4603 4576 4427 4249 4054 3886 3793 3737 3710 3705 3702 3628 3524 3359 3195 3086 3029 3062 3100 3070 2940 2774 2634 2598 2640 2733 2916 3098 3259 3382 3526 3632 3732 3812 3896 3957 3998 4035 4040 4040 4025 3999 3937 3876 3825 3785 3805 3825 3848 3859 3873 3878 3889 3897 3880 3863 3877 3891 3924 3988 4041 4105 4184 4227 4300 4320 4365
4487 4563 4588 4512 4355 4179 4023 3877 3807 3762 3749 3777 3763 3684 3560 3369 3199 3101 3076 3131 3155 3121 3007 2843 2729 2719 2780 2888 3050 3212 3390 3548 3695 3804 3907 3993 4054 4097 4090 4076 4034 4020 4007 3965 3927 3881 3843 3824 3808 3835 3849 3821 3805 3788 3799 3788 3755 3745 3748 3790 3892 3995 4087 4176 4263 4352 4428 4481 4529
4544 4546 4519 4420 4291 4140 3986 3879 3792 3763 3773 3799 3809 3752 3620 3432 3239 3157 3151 3225 3259 3199 3074 2913 2840 2823 2907 3024 3191 3356 3523 3692 3837 3978 4067 4154 4157 4162 4119 4046 4049 3998 3973 3938 3894 3866 3834 3805 3813 3813 3788 3732 3699 3689 3687 3671 3670 3690 3774 3882 4021 4171 4301 4440 4527 4619 4677 4727 4730
4524 4488 4434 4348 4227 4109 3985 3856 3788 3765 3770 3820 3841 3804 3695 3518 3371 3302 3293 3349 3347 3256 3133 2957 2891 2918 3020 3165 3341 3509 3670 3825 3972 4091 4180 4251 4255 4201 4145 4067 4030 3996 3956 3899 3871 3835 3807 3782 3762 3757 3696 3663 3628 3626 3630 3649 3723 3840 3990 4173 4362 4523 4665 4784 4840 4885 4900 4909 4892
4459 4401 4348 4293 4218 4105 3982 3855 3763 3740 3760 3844 3874 3837 3755 3630 3537 3484 3463 3474 3415 3287 3138 3010 2975 3031 3150 3321 3494 3641 3805 3955 4074 4166 4241 4279 4264 4199 4166 4113 4062 4016 3967 3918 3857 3837 3793 3757 3732 3714 3693 3674 3687 3691 3754 3820 3971 4149 4349 4546 4732 4876 4976 5074 5105 5115 5107 5113 5096
4399 4335 4293 4262 4215 4107 3995 3844 3726 3723 3771 3874 3923 3933 3862 3770 3709 3689 3665 3612 3456 3275 3132 3030 3046 3174 3313 3501 3649 3816 3946 4099 4188 4252 4289 4293 4223 4204 4178 4138 4098 4071 4033 3983 3908 3853 3821 3769 3768 3759 3777 3798 3827 3901 4002 4128 4306 4501 4689 4855 5020 5126 5232 5319 5359 5390 5415 5432 5454
4338 4330 4293 4287 4212 4110 3970 3821 3723 3722 3781 3912 4011 4037 3993 3929 3915 3888 3839 3718 3480 3268 3099 3045 3128 3277 3477 3663 3834 3987 4120 4261 4341 4384 4361 4296 4218 4193 4201 4199 4192 4159 4121 4060 3988 3917 3860 3832 3848 3867 3925 3996 4066 4167 4295 4440 4620 4798 4970 5136 5267 5384 5513 5613 5681 5735 5766 5794 5824
4356 4347 4332 4320 4237 4112 3961 3830 3762 3752 3830 3949 4076 4132 4143 4131 4141 4107 4009 3806 3516 3276 3110 3074 3199 3390 3621 3832 4004 4154 4295 4406 4426 4411 4366 4324 4251 4270 4272 4301 4277 4262 4190 4107 4042 3969 3935 3937 3964 4005 4073 4147 4266 4400 4533 4713 4868 5049 5199 5355 5477 5589 5718 5835 5914 6004 6040 6085 6099
4417 4419 4396 4359 4237 4096 3945 3816 3781 3793 3857 3967 4140 4260 4292 4324 4354 4285 4148 3888 3548 3291 3157 3169 3332 3543 3762 3995 4175 4316 4435 4443 4423 4385 4351 4326 4323 4352 4388 4393 4350 4260 4172 4107 4061 4035 4048 4073 4118 4167 4201 4277 4390 4551 4715 4915 5098 5242 5390 5532 5641 5766 5859 5957 6080 6184 6262 6315 6349
4466 4496 4473 4400 4265 4099 3953 3821 3783 3811 3894 4060 4237 4373 4474 4517 4519 4424 4223 3909 3552 3341 3226 3268 3455 3678 3900 4152 4329 4448 4478 4449 4367 4344 4318 4359 4399 4427 4441 4399 4299 4192 4105 4054 4072 4113 4148 4194 4251 4304 4352 4429 4543 4698 4884 5087 5270 5393 5507 5618 5755 5879 5957 6055 6162 6287 6409 6509 6550